{"data":{"norad_id":59321,"epoch":"2026-05-25T04:31:12.010080Z","epoch_age_seconds":54626,"freshness":"FRESH","line1":"1 59321U 24057B   26145.18833345  .00001763  00000+0  73578-4 0  9991","line2":"2 59321  43.0028 114.6076 0001281 269.5729  90.4975 15.27580664121547","mean_motion":15.27580664,"eccentricity":0.0001281,"inclination_deg":43.0028,"raan_deg":114.6076,"arg_perigee_deg":269.5729,"mean_anomaly_deg":90.4975,"bstar":7.3578e-5,"rev_number":12154,"period_min":94.266707738322,"perigee_km":482.16819010129,"apogee_km":483.92602546971,"semimajor_km":6861.1841077855,"source":"CELESTRAK","updated_at":"2026-05-25T13:38:18.902614Z"}}